This is the latest recevied weather packets stored in our database for station/object KM4CNW. If no packets are shown the sender has not sent any weather packets the latest 10 day(s).
| Time | Temp. | Humidity | Pressure | Rain* | Wind** | Luminosity | Snow |
|---|---|---|---|---|---|---|---|
| 1777933996 | 25.56° C | 25% | 1007.5 hPa | 0 mm | - | 171 W/m² | - |
| 1777933693 | 25.56° C | 26% | 1007.6 hPa | 0 mm | - | 175 W/m² | - |
| 1777933390 | 25.56° C | 26% | 1007.5 hPa | 0 mm | - | 206 W/m² | - |
| 1777933088 | 25.56° C | 26% | 1007.5 hPa | 0 mm | - | 216 W/m² | - |
| 1777932784 | 26.11° C | 26% | 1007.7 hPa | 0 mm | - | 240 W/m² | - |
| 1777932481 | 26.11° C | 26% | 1007.5 hPa | 0 mm | - | 256 W/m² | - |
| 1777932178 | 26.11° C | 26% | 1007.6 hPa | 0 mm | - | 275 W/m² | - |
| 1777931876 | 26.67° C | 26% | 1007.3 hPa | 0 mm | - | 293 W/m² | - |
| 1777931572 | 26.67° C | 26% | 1007.6 hPa | 0 mm | - | 310 W/m² | - |
| 1777931268 | 26.67° C | 26% | 1007.6 hPa | 0 mm | - | 325 W/m² | - |
| 1777930964 | 26.67° C | 26% | 1007.5 hPa | 0 mm | - | 344 W/m² | - |
| 1777930661 | 26.11° C | 26% | 1007.5 hPa | 0 mm | - | 366 W/m² | - |
| 1777930358 | 26.67° C | 25% | 1007.4 hPa | 0 mm | - | 385 W/m² | - |
| 1777930055 | 26.67° C | 26% | 1007.7 hPa | 0 mm | - | 404 W/m² | - |
| 1777929751 | 27.22° C | 26% | 1007.6 hPa | 0 mm | - | 423 W/m² | - |
| 1777929449 | 26.67° C | 26% | 1007.6 hPa | 0 mm | - | 442 W/m² | - |
| 1777929145 | 26.11° C | 26% | 1007.7 hPa | 0 mm | - | 442 W/m² | - |
| 1777928842 | 26.11° C | 26% | 1007.7 hPa | 0 mm | - | 475 W/m² | - |
| 1777928539 | 26.67° C | 26% | 1007.7 hPa | 0 mm | - | 494 W/m² | - |
| 1777928237 | 26.67° C | 27% | 1007.5 hPa | 0 mm | - | 511 W/m² | - |
| 1777927934 | 26.67° C | 28% | 1007.7 hPa | 0 mm | - | 530 W/m² | - |
| 1777927632 | 26.67° C | 26% | 1007.9 hPa | 0 mm | - | 542 W/m² | - |
| 1777927330 | 26.11° C | 28% | 1007.7 hPa | 0 mm | - | 559 W/m² | - |
| 1777927029 | 26.67° C | 26% | 1007.8 hPa | 0 mm | - | 576 W/m² | - |
| 1777926727 | 26.67° C | 26% | 1007.9 hPa | 0 mm | - | 595 W/m² | - |
* Rain latest hour (hover to see other rain measurements)
** Current wind speed in m/s (hover to see current wind gust speed)